Home > Weather > Carson City > Past weeks

Flag for USA Past Weather in Carson City, Nevada, USA — Yesterday and Last 2 Weeks

Now
101 °F

Broken clouds.


Feels Like: 97 °F
Forecast: 63 / 96 °F
Wind: 20 mph from North

Location: Reno Tahoe International Airport

Current Time: Jul 29, 2016 at 4:49:47 PM

Latest Report: Jul 29, 2016 at 3:55 PM


Visibility: 10 mi

Pressure: 29.74 "Hg (25.43 "Hg at 1425m altitude)

Humidity: 15%

Dew Point: 46 °F

Location of Carson CityLocation

Past Weather in Carson City — Graph

°F

Carson City Temperature Yesterday

Maximum temperature yesterday: 101 °F (at 3:55 PM)
Minimum temperature yesterday: 70 °F (at 4:55 AM)
Average temperature yesterday: 86 °F

High & Low Weather Summary for the Past Weeks

 TemperatureHumidityPressure
High102 °F (Jul 27, 4:55 PM)47% (Jul 21, 5:55 AM)30.10 "Hg (Jul 21, 5:55 AM)
Low54 °F (Jul 19, 4:55 AM)5% (Jul 14, 2:55 PM)29.75 "Hg (Jul 16, 3:55 PM)
Average78 °F20%29.92 "Hg
* Reported Jul 14 2:55 PM — Jul 29 2:55 PM, Carson City, Weather by CustomWeather, © 2016

Note: Actual official high and low records may vary slightly from our data, if they occured in-between our weather recording intervals... More about our weather records

Advertising

Carson City Weather History for the Previous 24 Hours

Scroll right to see more
 ConditionsComfort  
Time TempWeatherWind HumidityBarometerVisibility
2:55 PM
Fri, Jul 29
101 °FScattered clouds.3 mph13%29.76 "Hg10 mi
1:55 PM101 °FScattered clouds.7 mph13%29.79 "Hg10 mi
12:55 PM97 °FPassing clouds.5 mph14%29.82 "Hg10 mi
11:55 AM95 °FPassing clouds.6 mph15%29.84 "Hg10 mi
10:55 AM92 °FPassing clouds.3 mph21%29.87 "Hg10 mi
9:55 AM84 °FSunny.No wind29%29.88 "Hg10 mi
8:55 AM81 °FSunny.No wind32%29.89 "Hg10 mi
7:55 AM77 °FSunny.3 mph37%29.90 "Hg10 mi
6:55 AM71 °FClear.3 mph44%29.90 "Hg10 mi
5:55 AM73 °FPassing clouds.8 mph41%29.88 "Hg10 mi
4:55 AM73 °FClear.3 mph43%29.87 "Hg10 mi
3:55 AM75 °FClear.5 mph40%29.87 "Hg10 mi
2:55 AM76 °FClear.3 mph35%29.87 "Hg10 mi
1:55 AM79 °FClear.6 mph35%29.86 "Hg10 mi
12:55 AM81 °FClear.6 mph33%29.86 "Hg10 mi
11:55 PM
Thu, Jul 28
83 °FPassing clouds.No wind32%29.86 "Hg10 mi
10:55 PM83 °FPassing clouds.12 mph34%29.87 "Hg10 mi
9:55 PM88 °FPartly cloudy.5 mph24%29.89 "Hg10 mi
8:55 PM90 °FPartly sunny.3 mph23%29.88 "Hg10 mi
7:55 PM91 °FBroken clouds.10 mph21%29.85 "Hg10 mi
6:55 PM92 °FBroken clouds.16 mph21%29.83 "Hg10 mi
5:55 PM99 °FBroken clouds.9 mph12%29.81 "Hg10 mi
4:55 PM101 °FScattered clouds.7 mph11%29.81 "Hg10 mi
Weather by CustomWeather, © 2016

See weather overviewHow to use our weather pages